Skip Page Navigation
NASA JPL Caltech
NASA Logo - Jet Propulsion Laboratory + View the NASA Portal
+ Center for Near-Earth Object Studies
JPL Home Earth Solar System Stars & Galaxies Technology
JPL Solar System Dynamics
BODIES ORBITS EPHEMERIDES TOOLS PHYSICAL DATA DISCOVERY FAQ SITE MAP
IMPORTANT: The SSD Announcement email list is now available. Major changes are coming in the near future, including possible hostname and/or URL changes. To be notified of such changes, subscribe to this email list.

Please visit this page for more details.


JPL Small-Body Database Browser
Search: [ help ]  
523533 (2017 PA6)
Classification: Main-belt Asteroid          SPK-ID: 2523533
Ephemeris | Orbit Diagram | Orbital Elements | Mission Design | Physical Parameters | Discovery Circumstances ]

[ show orbit diagram ]
Orbital Elements at Epoch 2458600.5 (2019-Apr-27.0) TDB
Reference: JPL 3 (heliocentric ecliptic J2000)
 Element Value Uncertainty (1-sigma)   Units 
e .1065103342968309 3.3045e-07  
a 2.777821113208014 1.1007e-07 au
q 2.481954457823433 9.9599e-07 au
i 4.214264073764212 2.6391e-05 deg
node 138.4921037556693 0.00014832 deg
peri 235.9278131622091 0.00018444 deg
M 99.75344197094196 0.00011674 deg
tp 2458131.923798224384
(2018-Jan-13.42379822)
0.00052895 TDB
period 1691.04373048461
4.63
0.00010051
2.752e-07
d
yr
n .2128862746185949 1.2653e-08 deg/d
Q 3.073687768592594 1.2179e-07 au
  Orbit Determination Parameters
   # obs. used (total)      61  
   data-arc span      3305 days (9.05 yr)  
   first obs. used      2008-09-03  
   last obs. used      2017-09-21  
   planetary ephem.      DE431  
   SB-pert. ephem.      SB431-N16  
   condition code      0  
   norm. resid. RMS      .61153  
   source      ORB  
   producer      Otto Matic  
   solution date      2018-May-31 17:56:53  

Additional Information
 Earth MOID = 1.48456 au 
 Jupiter MOID = 2.39096 au 
 T_jup = 3.322 
[ show covariance matrix ]

Ephemeris | Orbit Diagram | Orbital Elements | Mission Design | Physical Parameters | Discovery Circumstances ]

Physical Parameter Table
Parameter Symbol Value Units Sigma Reference Notes
absolute magnitude H 17.0   n/a MPO448263  

523533 (2017 PA6)          Discovered 2008-Sep-03 by Spacewatch at Kitt Peak
Reference: Last Updated: 2018-05-31
Ephemeris | Orbit Diagram | Orbital Elements | Mission Design | Physical Parameters | Discovery Circumstances ]
ABOUT SSD CREDITS/AWARDS PRIVACY/COPYRIGHT GLOSSARY LINKS
FirstGov 2020-Jan-28 20:34 UT
(server date/time)  
NASA Home Page
Site Manager:   Ryan S. Park
Webmaster  Alan B. Chamberlin